Regional Weather Roundup
Issued by NWS

Home | Current Version | Previous Version | Graphics & Text | Print | Product List | Glossary On
Versions: 1 2 3 4 5 6 7 8 9 10 11 12 13 14 15 16 17 18 19 20 21 22 23 24 25 26 27 28
000
ASUS45 KSLC 220810
RWRUT

UTAH REGIONAL WEATHER ROUNDUP
NATIONAL WEATHER SERVICE SALT LAKE CITY UT
200 AM MDT TUE AUG 22 2017

UTZ001>011-023>025-220900-

NORTHERN UTAH

CITY           SKY/WX    TMP DP  RH WIND       PRES   REMARKS
BRIGHAM CITY   CLEAR     65  34  31 CALM      30.16S
HILL AFB       NOT AVBL
LOGAN          CLEAR     58  44  60 E3        30.19R
OGDEN          CLEAR     70  42  36 S10       30.15S
SALT LAKE CITY PTCLDY    75  44  33 CALM      30.14R
TOOELE VALLEY  CLEAR     66  43  42 S8        30.15S
WENDOVER       PTCLDY    73  36  25 NE8       30.15R
HEBER CITY     CLEAR     54  43  66 CALM      30.25S

$$

UTZ011>015-024>027-220900-

CENTRAL/NORTHEAST UTAH

CITY           SKY/WX    TMP DP  RH WIND       PRES   REMARKS
PROVO AIRPORT  NOT AVBL
MOAB/CANYONLAN PTCLDY    74  40  29 W5        30.13S
DELTA          MOCLDY    68  41  37 E3        30.19F
PRICE          PTCLDY    65  38  36 NE6       30.24S
RICHFIELD      CLEAR     59  52  77 CALM      30.27
ROOSEVELT      CLEAR     63  43  48 W12       30.21R
VERNAL         CLEAR     64  41  42 S7        30.19R

$$

UTZ013>016-019>022-027-220900-

SOUTHERN UTAH

CITY           SKY/WX    TMP DP  RH WIND       PRES   REMARKS
BRYCE CANYON   CLOUDY    54  50  86 CALM      30.42R
CEDAR CITY     MOCLDY    56  50  80 W5        30.25S
MILFORD        MOCLDY    67  49  52 S9        30.20S
ST GEORGE      SUNNY     79  52  38 SE3       30.08F
HANKSVILLE     PTCLDY    77  39  25 W8        30.17R
KANAB          MOCLDY    66  55  68 CALM      30.26
BLANDING       CLOUDY    64  48  55 CALM      30.37S

$$

REGIONAL REPORTS     COLORADO/ARIZONA

CITY           SKY/WX    TMP DP  RH WIND       PRES   REMARKS
CRAIG, CO      CLEAR     46  36  68 CALM      30.29R
GRAND JUNCTION MOCLDY    74  44  34 E14       30.18S
RIFLE, CO      CLOUDY    62  39  42 CALM      30.26R
MONTROSE, CO   CLEAR     62  44  51 SE5       30.30R
CORTEZ, CO     CLOUDY    64  53  67 CALM      30.30R
COLORADO CITY    N/A     63  52  67 CALM      30.24F
PAGE, AZ       MOCLDY    75  48  38 CALM      30.16F
GRAND CANYON   MOCLDY    57  56  96 CALM      30.34F
KINGMAN, AZ    CLEAR     60  57  89 CALM      30.13S
FLAGSTAFF, AZ  PTCLDY    51  49  92 CALM      30.36F

$$

REGIONAL REPORTS    NEVADA/IDAHO/WYOMING

CITY           SKY/WX    TMP DP  RH WIND       PRES   REMARKS
LAS VEGAS, NV  PTCLDY    82  54  37 W6        30.03S
ELY, NY        PTCLDY    63  41  44 S12       30.30R
ELKO, NV       CLOUDY    73  32  22 S3        30.20R
POCATELLO, ID  CLEAR     55  36  48 E3        30.20R
BURLEY, ID     CLEAR     52  39  61 SE3       30.16R
FORT BRIDGER,  SUNNY     61  30  31 W8        30.38S
EVANSTON, WY   CLOUDY    61  36  39 S6        30.36S
ROCK SPRINGS,  CLEAR     61  33  35 NE6       30.33R
KEMMERER, WY     N/A     54  30  40 MISG      30.38S

$$




USA.gov is the U.S. government's official web portal to all federal, state and local government web resources and services.